Weather History for Easton, MD

Change the Weather History Date:

Saturday, September 15, 2012

  Actual Average Record
Temperature  
Mean Temperature 64 °F -  
Max Temperature 73 °F 80 °F 90 °F (1970)
Min Temperature 56 °F 57 °F 43 °F (1975)
Growing Degree Days 14 (Base 50)    
Moisture  
Dew Point 59 °F    
Average Humidity 82    
Maximum Humidity 100    
Minimum Humidity 46    
Precipitation  
Precipitation 0.00 in - - ()
Sea Level Pressure  
Sea Level Pressure 30.17 in    
Wind  
Wind Speed 4 mph (North)    
Max Wind Speed 15 mph    
Max Gust Speed 21 mph    
Visibility 10 miles    
Events      
Averages and records for this station are not official NWS values.
T = Trace of Precipitation, MM = Missing Value Source: NWS Daily Summary

Daily Weather History Graph

Daily Weather History Graph

Search for Another Location

Airport:

Trip Planner

Search our weather history database for the weather conditions in past years. The results will help you decide how hot, cold, wet, or windy it might be!

Date:

Astronomy

Sep. 15, 2012 Rise Set
Actual Time 6:46 AM EDT 7:11 PM EDT
Civil Twilight 6:19 AM EDT 7:38 PM EDT
Nautical Twilight 5:48 AM EDT 8:09 PM EDT
Astronomical Twilight 5:15 AM EDT 8:41 PM EDT
Moon 6:14 AM EDT (9/15) 6:41 PM EDT (9/15)
Length of Visible Light 13h 18m
Length of Day
12h 25m
Waning Crescent, 0% of the Moon is Illuminated
Sep 15
Waning Crescent
Sep 15
New
Sep 22
First Quarter
Sep 29
Full
Oct 8
Last Quarter

Hourly Weather History & Observations

Time (EDT) Temp. Dew Point Humidity Pressure Visibility Wind Dir Wind Speed Gust Speed Precip Events Conditions
12:00 AM 66.2 °F 66.2 °F 100% 30.15 in 10.0 mi Calm Calm - N/A   Clear
12:22 AM 66.0 °F 66.0 °F 100% 30.14 in 10.0 mi SW 3.5 mph - N/A   Clear
12:43 AM 64.8 °F 64.8 °F 100% 30.14 in 10.0 mi Calm Calm - N/A   Clear
1:04 AM 64.2 °F 64.2 °F 100% 30.14 in 10.0 mi Calm Calm - N/A   Clear
1:26 AM 64.9 °F 64.9 °F 100% 30.14 in 10.0 mi SSW 3.5 mph - N/A   Clear
1:47 AM 64.4 °F 64.4 °F 100% 30.14 in 10.0 mi Calm Calm - N/A   Clear
2:08 AM 64.4 °F 64.4 °F 100% 30.13 in 10.0 mi Calm Calm - N/A   Clear
2:30 AM 64.8 °F 64.8 °F 100% 30.13 in 10.0 mi Calm Calm - N/A   Clear
2:51 AM 65.1 °F 65.1 °F 100% 30.13 in 10.0 mi Calm Calm - N/A   Scattered Clouds
3:12 AM 64.6 °F 64.6 °F 100% 30.12 in 10.0 mi Calm Calm - N/A   Scattered Clouds
3:33 AM 62.6 °F 62.6 °F 100% 30.12 in 7.0 mi Calm Calm - N/A   Clear
3:55 AM 63.7 °F 63.7 °F 100% 30.12 in 10.0 mi Calm Calm - N/A   Clear
4:16 AM 63.1 °F 63.1 °F 100% 30.13 in 10.0 mi NNW 3.5 mph - N/A   Clear
4:37 AM 64.6 °F 64.6 °F 100% 30.13 in 10.0 mi North 4.6 mph - N/A   Clear
4:59 AM 66.2 °F 66.2 °F 100% 30.14 in 10.0 mi NNE 8.1 mph - N/A   Clear
5:20 AM 66.0 °F 66.0 °F 100% 30.15 in 10.0 mi NNE 12.7 mph 18.4 mph N/A   Scattered Clouds
5:41 AM 65.3 °F 62.6 °F 91% 30.16 in 10.0 mi NNE 10.4 mph 17.3 mph N/A   Scattered Clouds
5:53 AM 64.4 °F 60.8 °F 88% 30.17 in 10.0 mi North 11.5 mph 20.7 mph N/A   Mostly Cloudy
6:03 AM 64.9 °F 60.3 °F 85% 30.17 in 10.0 mi North 9.2 mph 17.3 mph N/A   Mostly Cloudy
6:13 AM 64.8 °F 58.6 °F 81% 30.18 in 10.0 mi North 12.7 mph 17.3 mph N/A   Overcast
6:53 AM 62.6 °F 55.4 °F 77% 30.20 in 10.0 mi North 11.5 mph 18.4 mph N/A   Mostly Cloudy
7:53 AM 64.4 °F 55.4 °F 73% 30.22 in 10.0 mi North 11.5 mph - N/A   Scattered Clouds
8:49 AM 66.2 °F 53.6 °F 64% 30.23 in 10.0 mi North 9.2 mph - N/A   Scattered Clouds
9:45 AM 68.0 °F 51.8 °F 56% 30.24 in 10.0 mi NNE 11.5 mph 18.4 mph N/A   Scattered Clouds
10:53 AM 69.8 °F 51.8 °F 53% 30.23 in 10.0 mi North 11.5 mph 18.4 mph N/A   Clear
11:47 AM 71.6 °F 50.0 °F 46% 30.22 in 10.0 mi North 11.5 mph 20.7 mph N/A   Clear
12:47 PM 73.4 °F 51.8 °F 47% 30.21 in 10.0 mi NNW 9.2 mph 20.7 mph N/A   Clear
1:50 PM 73.4 °F 53.6 °F 50% 30.20 in 10.0 mi NNW 6.9 mph - N/A   Clear
2:53 PM 73.4 °F 53.6 °F 50% 30.18 in 10.0 mi NW 15.0 mph - N/A   Clear
3:52 PM 73.4 °F 53.6 °F 50% 30.16 in 10.0 mi NNW 10.4 mph - N/A   Clear
4:50 PM 73.4 °F 51.8 °F 47% 30.15 in 10.0 mi North 9.2 mph - N/A   Clear
5:55 PM 71.6 °F 55.4 °F 57% 30.15 in 10.0 mi WNW 3.5 mph - N/A   Clear
6:55 PM 68.0 °F 55.4 °F 64% 30.16 in 10.0 mi NNW 3.5 mph - N/A   Clear
7:50 PM 64.4 °F 57.2 °F 77% 30.17 in 10.0 mi Calm Calm - N/A   Clear
8:50 PM 62.6 °F 55.4 °F 77% 30.18 in 10.0 mi Calm Calm - N/A   Clear
10:21 PM 59.0 °F 55.4 °F 88% 30.18 in 10.0 mi Calm Calm - N/A   Clear
10:42 PM 59.0 °F 55.4 °F 88% 30.18 in 10.0 mi Calm Calm - N/A   Clear
11:03 PM 57.0 °F 54.1 °F 90% 30.18 in 10.0 mi Calm Calm - N/A   Clear
11:24 PM 56.8 °F 54.5 °F 92% 30.18 in 10.0 mi Calm Calm - N/A   Clear
11:46 PM 56.7 °F 54.5 °F 92% 30.18 in 7.0 mi Calm Calm - N/A   Clear